Location: Isles
(48.9125°N, 2.8272°E)
Time: 11:48:04
(UTC+00:00)

COSMO-SKYMED 1 - Pass Details

Date: 03 February 2023
Orbit: 621 x 623 km, 97.9° (Epoch: 30 March)

Event Time Altitude Azimuth Distance (km) Brightness Sun altitude
Rises 18:40:42 0° 7° (N) 2,921 5.9 -18.5°
Reaches altitude 10° 18:42:59 10° 1° (N) 2,009 5.1 -18.9°
Maximum altitude 18:47:04 41° 291° (WNW) 918 3.9 -19.6°
Drops below altitude 10° 18:51:08 10° 222° (SW) 1,993 5.7 -20.2°
Sets 18:53:24 0° 215° (SW) 2,895 6.5 -20.6°
